Погода в Сарагосе

Испания     41°39′31″N   0°53′19″E
темп.,
°C
ветер,
м/с
пор.,
м/с
влажн.,
%
обл.,
%
осадки,
мм/ч
давл.,
гПа
погр.,
м
26 февраля, пт
пт2601:00+9ссв127593 0.0 103123
04:00+8сз1280100 0.0 103123
07:00+7зсз2284100 0.0 103132
10:00+10зсз2377100 0.0 1031173
13:00+14сз2262100 0.0 1031520
16:00+16зсз2252100 0.0 1028732
19:00+12зсз3468100 0.0 102947
22:00+11зсз3578100 0.0 103090
27 февраля, сб
сб2701:00+9зсз4590100 0.0 1030124
04:00+9сз41090100 0.0 1029329
07:00+9сз61387100 0.0 1029377
10:00+11сз8107464 0.0 1028667
13:00+14сз785860 0.0 1026801
16:00+15сз78500 0.0 1024843
19:00+11зсз813630 0.0 1024378
22:00+9сз813730 0.0 1026373
28 февраля, вс
вс2801:00+7сз49790 0.0 1026297
04:00+7сз358038 0.0 1025204
07:00+6зсз238249 0.0 1025104
10:00+8з017465 0.0 1025365
13:00+12вюв346155 0.0 1024745
16:00+14вюв68559 0.0 10221018
19:00+12вюв813664 0.0 1022459
22:00+10вюв612790 0.0 1024394
1 марта, пн
пн101:00+8в511820 0.0 1025337
04:00+7вюв5129037 0.0 1024399
07:00+7вюв4119331 0.0 1024367
10:00+10вюв697660 0.0 1025794
13:00+14вюв8106372 0.0 10231049
16:00+15вюв8105773 0.0 10221031
19:00+12вюв7146544 0.0 1023494
22:00+10вюв714820 0.0 1026497
2 марта, вт
вт201:00+9вюв512924 0.0 1027431
04:00+8вюв489211 0.0 1027208
07:00+7в34927 0.0 102874
10:00+10вюв367535 0.0 1029561
13:00+15юв685945 0.0 10281027
16:00+16юв685487 0.0 10271070
19:00+13юв466384 0.0 1028133
22:00+10в347788 0.0 1031103